Location: Unspecified
(0.0000°N, 0.0000°E)
Time: 20:49:21
(UTC+00:00)

Vanguard 1 - Pass Details

Date: 25 June 2025
Orbit: 649 x 3822 km, 34.2° (Epoch: 12 July)

Event Time Altitude Azimuth Distance (km) Brightness Sun altitude
Rises 19:44:14 0° 264° (W) 7,393 15.5 -23.1°
Reaches altitude 10° 19:53:19 10° 244° (WSW) 5,698 14.4 -25.2°
Maximum altitude 20:01:07 15° 215° (SW) 4,542 13.5 -26.9°
Drops below altitude 10° 20:07:13 10° 184° (S) 4,255 13.1 -28.3°
Enters shadow 20:08:18 - 178° (S) 4,290 13.1 -28.5°
